Regional Weather Roundup
Issued by NWS Bismarck, ND

Home | Current Version | Previous Version | Text Only | Print | Product List | Glossary On
Versions: 1 2 3 4 5 6 7 8 9 10 11 12 13 14 15 16 17 18 19 20 21 22 23 24 25 26 27 28 29 30 31 32 33 34 35 36 37 38 39 40 41 42 43 44 45 46 47 48 49 50
000
ASUS43 KBIS 022059
RWRBIS

NWR BROADCAST TEXT
NATIONAL WEATHER SERVICE BISMARCK ND
400 PM CDT TUE SEP 02 2014

NOTE: "FAIR" INDICATES FEW OR NO CLOUDS BELOW 12,000 FEET WITH NO
SIGNIFICANT WEATHER AND/OR OBSTRUCTIONS TO VISIBILITY.


CITY           SKY/WX    TMP DP  RH WIND       PRES   REMARKS
WILLISTON      MOSUNNY   76  42  29 W7G18     29.76F
MINOT          SUNNY     76  46  34 W17G25    29.72S
MINOT AFB      NOT AVBL
BISMARCK       CLOUDY    79  48  33 W14       29.79S
DICKINSON      PTSUNNY   74  43  32 W14G26    29.81F
GARRISON         N/A     73  47  39 W13G22    29.76S
HETTINGER ARPT MOSUNNY   74  46  36 W13G22    29.84F
JAMESTOWN      NOT AVBL
CARRINGTON     FAIR      75  50  41 W14G21    29.76S
CROSBY         FAIR      72  43  35 NW9G16    29.76S
HARVEY         FAIR      77  45  31 W16G22    29.73S
HAZEN          FAIR      73  46  38 W14G20    29.78F
LINTON         FAIR      77  54  44 SW9       29.79S
OAKES            N/A     77  54  44 SW13      29.79F
RUGBY          FAIR      75  50  41 W15G25    29.70S
TIOGA          FAIR      73  41  31 W16       29.79S
WATFORD CITY   FAIR      73  41  31 NW14G20   29.76F
$$

CITY           SKY/WX    TMP DP  RH WIND       PRES   REMARKS
GRAND FORKS    MOSUNNY   74  56  53 SW12      29.70F
GRAND FORKS AF NOT AVBL
DEVILS LAKE    SUNNY     77  54  44 W16G22    29.69S
FARGO          SUNNY     79  53  40 SW18G29   29.75F
CAVALIER       FAIR      72  55  56 W6        29.66S
GRAFTON        FAIR      77  55  47 SW17G23   29.67F
GWINNER        CLEAR     81  55  41 SW16      29.80F
LANGDON        FAIR      77  52  41 SW20G28   29.68S
ROLLA          FAIR      72  50  46 W17G23    29.71S
WALHALLA         N/A     70  55  60 W9        29.66F
$$

CITY           SKY/WX    TMP DP  RH WIND       PRES   REMARKS
ABERDEEN       SUNNY     79  52  38 SW12      29.82F
MOBRIDGE       SUNNY     83  48  29 W10       29.78F
RAPID CITY     SUNNY     80  47  31 SE6       29.87F
GLASGOW        SUNNY     74  43  32 SW13      29.77F
SIDNEY         MOSUNNY   73  46  38 NW12      29.79F
WOLF POINT     MOSUNNY   74  42  31 SW8       29.78F
GLENDIVE       MOSUNNY   72  43  35 SW14G21   29.82F
MILES CITY     PTSUNNY   75  39  27 W10G16    29.82F
BAKER          PTSUNNY   71  42  35 W13G18    29.86F
$$

CITY           SKY/WX    TMP DP  RH WIND       PRES   REMARKS
BILLINGS       MOSUNNY   76  41  28 CALM      29.81F
GREAT FALLS    MOSUNNY   73  39  29 SW10      29.76F
$$



USA.gov is the U.S. government's official web portal to all federal, state and local government web resources and services.